User: anonymous
Location: Caltech
(34.1382°N, 118.1253°W)
Time: 01:08:42
(UTC-07:00)
Language:

Cosmos 2251 Rocket - Orbit

View from above orbital plane
View from above orbital plane
View from above satellite
View from above satellite

Ground track
Ground track

The orbit data is extracted from the following two-line orbital elements,

1 22676U 93036B   14291.79787318  .00000101  00000-0  45721-4 0  3518
2 22676 074.0423 159.9821 0018019 063.2061 297.0932 14.33661435115978
Epoch (UTC): 18 October 2014 19:08:56
Eccentricity: 0.0018019
inclination: 74.0423°
perigee height: 766 km
apogee height: 792 km
right ascension of ascending node: 159.9821°
argument of perigee: 63.2061°
revolutions per day: 14.33661435
mean anomaly at epoch: 297.0932°
orbit number at epoch: 11597

The dashed part of the orbit path shows where the satellite is in the earth's shadow,  

DLR